LNI881 WAPF-WAPP

Flight info

Callsign LNI881
Flight time 0h 54m
Altitude 36000
Route FOLOT W54 GOMBY
Aircraft B738/M-SDE2E3FGHIRWXY/LB1

Departure

Time 2026-04-19 00:08
Airport Karel Sadsuitubun Airport (WAPF)

Arrival

Time 2026-04-19 01:02
Airport Pattimura International Airport (WAPP)
Time Latitude Longitude Altitude Speed Heading
2026-04-18 23:52 -5.75722 132.75954 72 ft 0 kts 44°
2026-04-18 23:57 -5.75723 132.75953 72 ft 1 kts 44°
2026-04-18 23:57 -5.75735 132.75941 63 ft 3 kts 49°
2026-04-18 23:58 -5.75747 132.75925 63 ft 3 kts 57°
2026-04-18 23:58 -5.75758 132.75907 63 ft 3 kts 65°
2026-04-18 23:58 -5.75763 132.75896 63 ft 0 kts 68°
2026-04-19 00:02 -5.75760 132.75902 66 ft 2 kts 68°
2026-04-19 00:03 -5.75764 132.75923 69 ft 4 kts 121°
2026-04-19 00:03 -5.75791 132.75941 71 ft 5 kts 169°
2026-04-19 00:03 -5.75828 132.75925 70 ft 7 kts 218°
2026-04-19 00:03 -5.75869 132.75888 66 ft 8 kts 222°
2026-04-19 00:04 -5.75920 132.75883 67 ft 9 kts 144°
2026-04-19 00:04 -5.75963 132.75930 72 ft 10 kts 133°
2026-04-19 00:04 -5.76012 132.75981 72 ft 11 kts 134°
2026-04-19 00:04 -5.76068 132.76039 68 ft 13 kts 132°
2026-04-19 00:05 -5.76132 132.76109 71 ft 15 kts 133°
2026-04-19 00:05 -5.76202 132.76183 69 ft 14 kts 133°
2026-04-19 00:05 -5.76268 132.76253 72 ft 14 kts 133°
2026-04-19 00:05 -5.76334 132.76324 71 ft 14 kts 134°
2026-04-19 00:06 -5.76405 132.76399 72 ft 15 kts 133°
2026-04-19 00:06 -5.76474 132.76474 73 ft 14 kts 133°
2026-04-19 00:06 -5.76525 132.76537 69 ft 12 kts 113°
2026-04-19 00:06 -5.76551 132.76588 75 ft 3 kts 152°
2026-04-19 00:07 -5.76565 132.76577 72 ft 3 kts 254°
2026-04-19 00:07 -5.76554 132.76560 64 ft 3 kts 313°
2026-04-19 00:07 -5.76536 132.76541 72 ft 9 kts 313°
2026-04-19 00:07 -5.76288 132.76275 69 ft 97 kts 313°
2026-04-19 00:08 -5.75638 132.75591 86 ft 170 kts 313°
2026-04-19 00:08 -5.74754 132.74669 741 ft 189 kts 313°
2026-04-19 00:08 -5.73899 132.73700 1945 ft 179 kts 309°
2026-04-19 00:08 -5.73101 132.72711 2837 ft 191 kts 309°
2026-04-19 00:09 -5.72218 132.71595 3180 ft 218 kts 303°
2026-04-19 00:09 -5.71413 132.70208 3469 ft 239 kts 299°
2026-04-19 00:09 -5.70594 132.68723 4057 ft 246 kts 300°
2026-04-19 00:09 -5.69715 132.67179 4514 ft 264 kts 301°
2026-04-19 00:10 -5.68762 132.65571 5352 ft 269 kts 302°
2026-04-19 00:10 -5.67777 132.63955 6200 ft 274 kts 302°
2026-04-19 00:10 -5.66755 132.62316 6959 ft 280 kts 303°
2026-04-19 00:10 -5.65702 132.60652 7723 ft 285 kts 303°
2026-04-19 00:11 -5.64619 132.58960 8486 ft 290 kts 304°
2026-04-19 00:11 -5.63515 132.57244 9246 ft 296 kts 304°
2026-04-19 00:11 -5.62383 132.55493 9995 ft 301 kts 304°
2026-04-19 00:11 -5.61214 132.53691 10439 ft 319 kts 304°
2026-04-19 00:12 -5.59955 132.51755 10610 ft 343 kts 304°
2026-04-19 00:12 -5.58616 132.49695 10952 ft 358 kts 304°
2026-04-19 00:12 -5.57245 132.47583 11567 ft 364 kts 304°
2026-04-19 00:12 -5.55860 132.45451 12279 ft 366 kts 304°
2026-04-19 00:13 -5.54468 132.43309 12972 ft 368 kts 304°
2026-04-19 00:13 -5.53075 132.41168 13641 ft 372 kts 304°
2026-04-19 00:13 -5.51668 132.38976 14226 ft 376 kts 302°
2026-04-19 00:13 -5.50449 132.36635 14786 ft 381 kts 297°
2026-04-19 00:14 -5.49325 132.34213 15349 ft 385 kts 296°
2026-04-19 00:14 -5.48219 132.31754 15901 ft 388 kts 295°
2026-04-19 00:14 -5.47104 132.29270 16448 ft 392 kts 295°
2026-04-19 00:14 -5.45974 132.26767 16989 ft 396 kts 296°
2026-04-19 00:15 -5.44824 132.24243 17519 ft 399 kts 296°
2026-04-19 00:15 -5.43657 132.21699 18029 ft 403 kts 296°
2026-04-19 00:15 -5.42476 132.19135 18509 ft 407 kts 296°
2026-04-19 00:15 -5.41283 132.16551 18960 ft 409 kts 296°
2026-04-19 00:16 -5.40080 132.13950 19423 ft 412 kts 296°
2026-04-19 00:16 -5.38872 132.11338 19865 ft 415 kts 296°
2026-04-19 00:16 -5.37652 132.08703 20296 ft 417 kts 296°
2026-04-19 00:16 -5.36426 132.06054 20734 ft 420 kts 296°
2026-04-19 00:17 -5.35191 132.03386 21161 ft 423 kts 296°
2026-04-19 00:17 -5.33949 132.00703 21571 ft 426 kts 296°
2026-04-19 00:17 -5.32697 131.97999 21992 ft 428 kts 296°
2026-04-19 00:17 -5.31439 131.95281 22400 ft 431 kts 296°
2026-04-19 00:18 -5.30172 131.92547 22802 ft 433 kts 295°
2026-04-19 00:18 -5.28896 131.89792 23182 ft 436 kts 295°
2026-04-19 00:18 -5.27615 131.87025 23567 ft 439 kts 295°
2026-04-19 00:18 -5.26325 131.84241 23862 ft 441 kts 295°
2026-04-19 00:19 -5.25029 131.81445 24156 ft 444 kts 295°
2026-04-19 00:19 -5.23724 131.78628 24449 ft 446 kts 295°
2026-04-19 00:19 -5.22412 131.75796 24746 ft 449 kts 295°
2026-04-19 00:19 -5.21093 131.72951 25043 ft 451 kts 295°
2026-04-19 00:20 -5.19767 131.70090 25324 ft 454 kts 295°
2026-04-19 00:20 -5.18433 131.67213 25605 ft 456 kts 295°
2026-04-19 00:20 -5.17093 131.64322 25885 ft 458 kts 296°
2026-04-19 00:20 -5.15744 131.61412 26162 ft 461 kts 296°
2026-04-19 00:21 -5.14391 131.58495 26441 ft 463 kts 296°
2026-04-19 00:21 -5.13029 131.55559 26723 ft 465 kts 296°
2026-04-19 00:21 -5.11665 131.52612 26985 ft 467 kts 296°
2026-04-19 00:21 -5.10297 131.49649 27240 ft 469 kts 295°
2026-04-19 00:22 -5.08923 131.46670 27501 ft 471 kts 295°
2026-04-19 00:22 -5.07545 131.43682 27757 ft 473 kts 295°
2026-04-19 00:22 -5.06158 131.40674 28003 ft 476 kts 296°
2026-04-19 00:22 -5.04768 131.37660 28245 ft 478 kts 296°
2026-04-19 00:23 -5.03371 131.34632 28488 ft 479 kts 296°
2026-04-19 00:23 -5.01985 131.31630 28721 ft 481 kts 296°
2026-04-19 00:23 -5.00575 131.28576 28938 ft 483 kts 296°
2026-04-19 00:23 -4.99160 131.25512 29168 ft 485 kts 296°
2026-04-19 00:24 -4.97739 131.22435 29385 ft 487 kts 296°
2026-04-19 00:24 -4.96310 131.19342 29583 ft 489 kts 296°
2026-04-19 00:24 -4.94859 131.16201 29808 ft 491 kts 296°
2026-04-19 00:24 -4.93420 131.13085 29999 ft 493 kts 296°
2026-04-19 00:25 -4.91996 131.10004 30186 ft 494 kts 296°
2026-04-19 00:25 -4.90551 131.06877 30410 ft 494 kts 296°
2026-04-19 00:25 -4.89105 131.03747 30679 ft 494 kts 296°
2026-04-19 00:25 -4.87663 131.00627 30939 ft 493 kts 296°
2026-04-19 00:26 -4.86219 130.97505 31177 ft 494 kts 296°
2026-04-19 00:26 -4.84775 130.94382 31402 ft 494 kts 296°
2026-04-19 00:26 -4.83329 130.91256 31648 ft 494 kts 295°
2026-04-19 00:26 -4.81883 130.88130 31905 ft 494 kts 295°
2026-04-19 00:27 -4.80438 130.85006 32167 ft 494 kts 295°
2026-04-19 00:27 -4.78992 130.81880 32427 ft 494 kts 295°
2026-04-19 00:27 -4.77547 130.78757 32702 ft 494 kts 295°
2026-04-19 00:27 -4.76103 130.75638 32987 ft 493 kts 295°
2026-04-19 00:28 -4.74660 130.72522 33266 ft 493 kts 295°
2026-04-19 00:28 -4.73219 130.69407 33560 ft 492 kts 295°
2026-04-19 00:28 -4.71778 130.66296 33841 ft 492 kts 295°
2026-04-19 00:28 -4.70339 130.63188 34089 ft 491 kts 295°
2026-04-19 00:29 -4.68902 130.60085 34341 ft 491 kts 295°
2026-04-19 00:29 -4.67465 130.56983 34591 ft 490 kts 295°
2026-04-19 00:29 -4.66030 130.53885 34822 ft 490 kts 295°
2026-04-19 00:29 -4.64596 130.50791 35053 ft 490 kts 295°
2026-04-19 00:30 -4.63160 130.47692 35306 ft 489 kts 295°
2026-04-19 00:30 -4.61730 130.44607 35543 ft 488 kts 295°
2026-04-19 00:30 -4.60299 130.41519 35754 ft 489 kts 295°
2026-04-19 00:30 -4.58867 130.38430 35935 ft 489 kts 296°
2026-04-19 00:31 -4.57431 130.35332 35932 ft 491 kts 296°
2026-04-19 00:31 -4.54556 130.29132 35944 ft 489 kts 296°
2026-04-19 00:32 -4.51695 130.22964 35946 ft 487 kts 296°
2026-04-19 00:32 -4.48843 130.16817 35946 ft 486 kts 296°
2026-04-19 00:33 -4.45998 130.10687 35946 ft 485 kts 296°
2026-04-19 00:33 -4.43156 130.04564 35947 ft 484 kts 296°
2026-04-19 00:34 -4.38893 129.95383 35946 ft 485 kts 296°
2026-04-19 00:34 -4.36046 129.89254 35948 ft 486 kts 296°
2026-04-19 00:35 -4.33195 129.83116 35948 ft 486 kts 296°
2026-04-19 00:35 -4.30356 129.77006 35947 ft 487 kts 296°
2026-04-19 00:36 -4.28127 129.70581 35947 ft 487 kts 274°
2026-04-19 00:36 -4.28211 129.67203 35960 ft 485 kts 262°
2026-04-19 00:36 -4.28604 129.63845 35837 ft 488 kts 262°
2026-04-19 00:37 -4.29035 129.60487 35248 ft 495 kts 261°
2026-04-19 00:37 -4.29476 129.57079 34650 ft 493 kts 262°
2026-04-19 00:37 -4.29909 129.53617 33997 ft 495 kts 262°
2026-04-19 00:37 -4.30320 129.50188 33264 ft 496 kts 262°
2026-04-19 00:38 -4.30710 129.46820 32811 ft 491 kts 262°
2026-04-19 00:38 -4.31099 129.43392 32302 ft 487 kts 262°
2026-04-19 00:38 -4.31475 129.40037 31826 ft 482 kts 263°
2026-04-19 00:38 -4.31847 129.36715 31360 ft 478 kts 263°
2026-04-19 00:39 -4.32216 129.33418 30896 ft 474 kts 263°
2026-04-19 00:39 -4.32583 129.30151 30438 ft 470 kts 263°
2026-04-19 00:39 -4.32948 129.26909 29968 ft 467 kts 263°
2026-04-19 00:39 -4.33310 129.23691 29426 ft 463 kts 263°
2026-04-19 00:40 -4.33664 129.20544 28929 ft 458 kts 263°
2026-04-19 00:40 -4.34024 129.17346 28435 ft 453 kts 263°
2026-04-19 00:40 -4.34371 129.14265 27975 ft 449 kts 263°
2026-04-19 00:40 -4.34723 129.11132 27499 ft 444 kts 263°
2026-04-19 00:41 -4.35063 129.08114 27055 ft 440 kts 263°
2026-04-19 00:41 -4.35404 129.05082 26616 ft 436 kts 263°
2026-04-19 00:41 -4.35741 129.02077 26155 ft 432 kts 263°
2026-04-19 00:41 -4.36076 128.99098 25708 ft 429 kts 263°
2026-04-19 00:42 -4.36408 128.96140 25270 ft 425 kts 263°
2026-04-19 00:42 -4.36737 128.93206 24828 ft 422 kts 263°
2026-04-19 00:42 -4.37064 128.90289 24368 ft 420 kts 263°
2026-04-19 00:42 -4.37389 128.87391 23927 ft 417 kts 263°
2026-04-19 00:43 -4.37713 128.84507 23472 ft 415 kts 263°
2026-04-19 00:43 -4.38034 128.81642 22963 ft 412 kts 263°
2026-04-19 00:43 -4.38352 128.78798 22499 ft 409 kts 263°
2026-04-19 00:43 -4.38667 128.75983 22050 ft 405 kts 263°
2026-04-19 00:44 -4.38979 128.73194 21614 ft 401 kts 263°
2026-04-19 00:44 -4.39289 128.70425 21183 ft 398 kts 263°
2026-04-19 00:44 -4.39596 128.67679 20753 ft 395 kts 263°
2026-04-19 00:44 -4.39901 128.64957 20361 ft 391 kts 263°
2026-04-19 00:45 -4.40200 128.62275 20060 ft 385 kts 263°
2026-04-19 00:45 -4.40497 128.59616 19658 ft 383 kts 263°
2026-04-19 00:45 -4.40792 128.56976 19254 ft 381 kts 263°
2026-04-19 00:45 -4.41085 128.54346 18826 ft 380 kts 263°
2026-04-19 00:46 -4.41378 128.51720 18402 ft 379 kts 263°
2026-04-19 00:46 -4.41671 128.49097 17932 ft 378 kts 263°
2026-04-19 00:46 -4.41961 128.46489 17481 ft 376 kts 263°
2026-04-19 00:46 -4.42153 128.44769 17193 ft 374 kts 263°
2026-04-19 00:47 -4.42537 128.41316 16625 ft 371 kts 263°
2026-04-19 00:47 -4.42819 128.38783 16211 ft 369 kts 263°
2026-04-19 00:47 -4.43103 128.36233 15804 ft 367 kts 263°
2026-04-19 00:47 -4.43385 128.33697 15393 ft 365 kts 263°
2026-04-19 00:48 -4.43594 128.31169 14975 ft 364 kts 272°
2026-04-19 00:48 -4.43050 128.28716 14575 ft 361 kts 295°
2026-04-19 00:48 -4.42206 128.27257 14309 ft 358 kts 308°
2026-04-19 00:48 -4.40444 128.25530 13883 ft 354 kts 327°
2026-04-19 00:49 -4.38355 128.24246 13460 ft 352 kts 332°
2026-04-19 00:49 -4.36229 128.23047 13038 ft 350 kts 333°
2026-04-19 00:49 -4.33423 128.21488 12504 ft 347 kts 333°
2026-04-19 00:49 -4.32032 128.20708 12238 ft 345 kts 332°
2026-04-19 00:50 -4.29950 128.19531 11849 ft 343 kts 332°
2026-04-19 00:50 -4.27883 128.18352 11457 ft 341 kts 332°
2026-04-19 00:50 -4.25835 128.17177 11073 ft 338 kts 332°
2026-04-19 00:50 -4.23800 128.16007 10690 ft 336 kts 331°
2026-04-19 00:51 -4.21783 128.14846 10450 ft 330 kts 331°
2026-04-19 00:51 -4.19828 128.13719 10328 ft 319 kts 332°
2026-04-19 00:51 -4.17931 128.12627 10201 ft 310 kts 332°
2026-04-19 00:51 -4.16091 128.11569 10088 ft 301 kts 332°
2026-04-19 00:52 -4.14326 128.10495 9982 ft 292 kts 326°
2026-04-19 00:52 -4.12691 128.09280 9505 ft 296 kts 323°
2026-04-19 00:52 -4.11093 128.08009 9107 ft 292 kts 322°
2026-04-19 00:52 -4.09518 128.06746 8734 ft 287 kts 322°
2026-04-19 00:53 -4.07966 128.05510 8368 ft 283 kts 323°
2026-04-19 00:53 -4.06433 128.04300 8020 ft 279 kts 323°
2026-04-19 00:53 -4.04918 128.03111 7670 ft 275 kts 323°
2026-04-19 00:53 -4.03406 128.01929 7338 ft 276 kts 323°
2026-04-19 00:54 -4.01886 128.00744 6995 ft 278 kts 323°
2026-04-19 00:54 -4.00351 127.99550 6636 ft 280 kts 323°
2026-04-19 00:54 -3.98819 127.98357 6268 ft 277 kts 323°
2026-04-19 00:54 -3.97308 127.97182 5900 ft 273 kts 323°
2026-04-19 00:55 -3.95819 127.96024 5541 ft 269 kts 323°
2026-04-19 00:55 -3.94355 127.94887 5208 ft 265 kts 323°
2026-04-19 00:55 -3.92914 127.93767 4959 ft 257 kts 323°
2026-04-19 00:55 -3.91534 127.92695 4757 ft 247 kts 323°
2026-04-19 00:56 -3.90097 127.91861 4603 ft 233 kts 349°
2026-04-19 00:56 -3.88569 127.92017 4469 ft 218 kts 28°
2026-04-19 00:56 -3.87371 127.92879 4263 ft 209 kts 37°
2026-04-19 00:56 -3.86272 127.93793 4022 ft 201 kts 41°
2026-04-19 00:57 -3.85276 127.94745 3751 ft 194 kts 44°
2026-04-19 00:57 -3.84335 127.95682 3493 ft 187 kts 44°
2026-04-19 00:57 -3.83430 127.96587 3251 ft 180 kts 44°
2026-04-19 00:57 -3.82561 127.97455 3004 ft 175 kts 44°
2026-04-19 00:58 -3.81706 127.98308 2775 ft 173 kts 44°
2026-04-19 00:58 -3.80861 127.99152 2550 ft 170 kts 44°
2026-04-19 00:58 -3.80048 127.99963 2327 ft 160 kts 44°
2026-04-19 00:58 -3.79285 128.00725 2139 ft 149 kts 44°
2026-04-19 00:59 -3.78575 128.01433 1965 ft 138 kts 44°
2026-04-19 00:59 -3.77878 128.02129 1755 ft 143 kts 44°
2026-04-19 00:59 -3.77169 128.02836 1565 ft 144 kts 43°
2026-04-19 00:59 -3.76459 128.03545 1366 ft 144 kts 44°
2026-04-19 01:00 -3.75753 128.04249 1175 ft 143 kts 44°
2026-04-19 01:00 -3.75050 128.04951 996 ft 143 kts 44°
2026-04-19 01:00 -3.74346 128.05651 808 ft 142 kts 44°
2026-04-19 01:00 -3.73623 128.06350 518 ft 145 kts 46°
2026-04-19 01:01 -3.72934 128.07058 355 ft 138 kts 46°
2026-04-19 01:01 -3.72258 128.07728 199 ft 137 kts 46°
2026-04-19 01:01 -3.71583 128.08403 46 ft 137 kts 46°
2026-04-19 01:01 -3.70981 128.09013 35 ft 104 kts 45°
2026-04-19 01:02 -3.70576 128.09416 36 ft 60 kts 45°
2026-04-19 01:02 -3.70381 128.09608 34 ft 23 kts 45°
2026-04-19 01:02 -3.70301 128.09684 34 ft 13 kts 35°
2026-04-19 01:02 -3.70236 128.09711 33 ft 9 kts 34°
2026-04-19 01:03 -3.70236 128.09735 34 ft 3 kts 135°
2026-04-19 01:03 -3.70257 128.09729 34 ft 4 kts 217°
2026-04-19 01:03 -3.70284 128.09705 34 ft 7 kts 224°
2026-04-19 01:03 -3.70323 128.09667 34 ft 9 kts 226°
2026-04-19 01:04 -3.70371 128.09618 34 ft 11 kts 225°
2026-04-19 01:04 -3.70427 128.09563 35 ft 12 kts 224°
2026-04-19 01:04 -3.70488 128.09504 36 ft 13 kts 225°
2026-04-19 01:04 -3.70554 128.09438 36 ft 14 kts 225°
2026-04-19 01:05 -3.70629 128.09365 36 ft 16 kts 223°
2026-04-19 01:05 -3.70707 128.09285 37 ft 16 kts 225°
2026-04-19 01:05 -3.70774 128.09217 36 ft 11 kts 227°
2026-04-19 01:05 -3.70782 128.09156 33 ft 8 kts 299°
2026-04-19 01:06 -3.70742 128.09112 35 ft 9 kts 313°
2026-04-19 01:06 -3.70698 128.09057 36 ft 11 kts 293°
2026-04-19 01:06 -3.70694 128.08981 36 ft 10 kts 269°
2026-04-19 01:06 -3.70695 128.08914 36 ft 9 kts 269°
2026-04-19 01:07 -3.70695 128.08871 36 ft 1 kts 271°
2026-04-19 01:07 -3.70686 128.08863 36 ft 3 kts 328°
2026-04-19 01:07 -3.70662 128.08855 36 ft 5 kts 349°
2026-04-19 01:07 -3.70637 128.08855 36 ft 3 kts
2026-04-19 01:08 -3.70627 128.08855 36 ft 0 kts